星链-36102(STARLINK-36102)

导读

STARLINK-36102是美国SpaceX星链项目的卫星,于2025年12月2日发射升空。作为星链星座组网部署的组成部分,它延续了星链卫星的设计思路,旨在为全球范围提供低延迟、高速率的宽带互联网服务,进一步扩充星链星座规模,完善全球覆盖网络,支撑星链系统在民用通信等领域持续拓展服务能力。

基本信息
目录编号:
66849
目录名称:
STARLINK-36102
国际标识:
2025-281B
轨道中心:
EARTH
卫星名称:
星链-36102
卫星全名:
星链-36102(STARLINK-36102)
卫星状态:
在轨 (已飞行277 天)
发射日期:
2025-12-02 UTC
国别 :
美国 (US)
星等 :
--
轨道信息
数据来源 国际轨道数据
星历时间: 2026-09-05T20:07:28+0800
7小时前
查看轨道信息
半长轴: 6861.18km
偏心率: 0.000219
轨道倾角: 43.005°
近地点辐角 279.339°
升交点赤经 48.176°
平近点角 80.721°
近地点: 481.54km
远地点: 484.546km
周期: 94.267分钟
每日圈数: 15.275822
详细信息
固有亮度:
5
最大亮度:
2.5
卫星平台:
Starlink V1.0
覆盖范围:
全球
运营商:
太空探索技术公司
运营商所在国:
美国
制造商(研发单位):
太空探索技术公司
制造商所在国:
美国
使用方式:
暂无
卫星简介
Starlink 计划是 SpaceX 推出的全球卫星互联网项目,通过发射低轨道卫星,为全球尤其是偏远地区提供高速、低延迟的互联网服务。自 2019 年起,Starlink 已部署数千颗卫星,旨在缩小全球数字鸿沟,推动互联网普及。该项目还为军事、航空等行业提供通信支持,带来广泛经济效益。
2D轨道图
3D轨道图
轨道高度分析图
轨道倾角分析图
轨道综合分析图
查看轨道综合分析图
交会数据列表
事件ID 空间交会对象 最接近时刻(TCA) 交会距离 交会风险概率(CRP) 交会风险指数(CRI) 操作
CDM_260908-035805-824506-684921
2026-09-08T
03:58:21+0000
0.975 km
远距离
1.395327E-5 中风险 0.58
CDM_260908-053205-824506-684921
2026-09-08T
05:32:30+0000
1.755 km
极远距离
2.06691E-6 低风险 0.41
CDM_260907-002105-305006-684921
2026-09-07T
00:21:04+0000
2.370 km
极远距离
1.298037E-6 低风险 0.37
CDM_260906-235105-717606-684921
OBJECT L (57176)
2026-09-06T
23:51:44+0000
2.929 km
极远距离
1.162216E-6 低风险 0.36